Location: Unspecified
(0.0000°N, 0.0000°E)
Time: 11:26:14
(UTC+00:00)

ACS3 Solar Sail - Pass Details

Date: 16 May 2025
Orbit: 935 x 1009 km, 97.5° (Epoch: 13 May)

Event Time Altitude Azimuth Distance (km) Brightness Sun altitude
Rises 04:39:45 0° 32° (NNE) 3,640 5.6 -18.1°
Reaches altitude 10° 04:42:29 10° 42° (NE) 2,708 5.1 -17.4°
Maximum altitude 04:47:45 31° 102° (ESE) 1,655 3.6 -16.2°
Drops below altitude 10° 04:53:06 10° 162° (SSE) 2,758 4.2 -14.9°
Sets 04:55:53 0° 172° (S) 3,718 4.7 -14.3°
